User: anonymous   Login
Location: Unspecified
(0.0000°N, 0.0000°E)
Time: 07:16:17
(UTC+00:00)
Language:

Quakesat - Orbit

View from above orbital plane
View from above orbital plane
View from above satellite
View from above satellite

Ground track
Ground track

The orbit data is extracted from the following two-line orbital elements,

1 27845U 03031F   17178.50450392 +.00000055 +00000-0 +44791-4 0  9994
2 27845 098.6936 188.4645 0008558 348.8109 011.2877 14.22029514725633
Epoch (UTC): 27 June 2017 12:06:29
Eccentricity: 0.0008558
inclination: 98.6936°
perigee height: 812 km
apogee height: 824 km
right ascension of ascending node: 188.4645°
argument of perigee: 348.8109°
revolutions per day: 14.22029514
mean anomaly at epoch: 11.2877°
orbit number at epoch: 72563

The dashed part of the orbit path shows where the satellite is in the earth's shadow,  

DLR